Regional Weather Roundup
Issued by NWS

Home | Current Version | Previous Version | Graphics & Text | Print | Product List | Glossary On
Versions: 1 2 3 4 5 6 7 8 9 10 11 12 13 14 15 16 17 18 19 20 21 22 23 24 25 26 27 28 29 30 31 32 33 34 35 36 37 38 39 40 41 42 43 44 45 46 47 48 49 50
008
ASUS45 KABQ 090501
RWRNM
NEW MEXICO REGIONAL WEATHER ROUNDUP
NATIONAL WEATHER SERVICE ALBUQUERQUE NM
1000 PM MST MON FEB 08 2016

NOTE: "FAIR" MEANS FEW OR NO CLOUDS BELOW 12,000 FEET AGL WITH NO
       SIGNIFICANT WEATHER OR OBSTRUCTIONS TO VISION.

      THIS PRODUCT IS RELEASED AS TWO VERSIONS.  ONE VERSION NEAR
      THE TOP OF THE HOUR CONTAINING PRELIMINARY DATA FROM ALBUQUERQUE
      AND OTHER STATIONS.  A FINAL VERSION WITH ADDITIONAL DATA IS
      ISSUED ABOUT 10 MINUTES AFTER THE HOUR.

NMZ501-503-504-510>518-090600-
NORTHWEST PLATEAU/NORTHCENTRAL MOUNTAINS

CITY           SKY/WX    TMP DP  RH WIND       PRES   REMARKS
FARMINGTON     CLOUDY    29  22  75 N8        30.41R WCI  21
SANTA FE       CLOUDY    33  20  58 CALM      30.40R
TAOS           CLOUDY    28  18  64 NW7       30.43S WCI  21

$$
NMZ402-403-502-505>509-090600-
WESTCENTRAL MOUNTAINS/SOUTHWEST MOUNTAINS

CITY           SKY/WX    TMP DP  RH WIND       PRES   REMARKS
GALLUP         CLEAR     28  22  78 CALM      30.45S
SILVER CITY      N/A     32  19  59 NE8       30.39R WCI  25

$$
NMZ407-409-411-412-090600-
SOUTHERN DESERTS

CITY           SKY/WX    TMP DP  RH WIND       PRES   REMARKS
DEMING         PTCLDY    37  15  40 N6        30.35R WCI  32
HOLLOMAN AFB   CLOUDY    40  14  34 SE3       30.35R
ALAMOGORDO     CLOUDY    39  14  35 CALM      30.37R
T OR C         CLEAR     41  14  33 W7        30.36R

$$
NMZ519>523-090600-
CENTRAL VALLEYS/CENTRAL HIGHLANDS

CITY           SKY/WX    TMP DP  RH WIND       PRES   REMARKS
ALBUQUERQUE    CLOUDY    44  23  43 N7        30.40R
DOUBLE EAGLE   CLEAR     43  21  42 NW13      30.41R
MORIARTY ARPT  FAIR      24  19  78 NW5       30.43R WCI  19
CLINES CORNERS CLOUDY    30  15  53 E5        30.40S WCI  25
BELEN          FAIR      35  18  50 N6        30.40R WCI  30
SOCORRO        NOT AVBL

$$
NMZ524>526-539-540-090600-
SOUTHCENTRAL MOUNTAINS

CITY           SKY/WX    TMP DP  RH WIND       PRES   REMARKS
RUIDOSO          N/A     32  14  47 SE5       30.42R WCI  27

$$
NMZ527>531-090600-
NORTHEAST HIGHLANDS/NORTHEAST PLAINS

CITY           SKY/WX    TMP DP  RH WIND       PRES   REMARKS
LAS VEGAS      CLOUDY    27  18  69 SW8       30.41F WCI  19
RATON          CLOUDY    27  18  69 NE7       30.40R WCI  19
CLAYTON        CLOUDY    35  21  56 W12       30.37F WCI  27

$$
NMZ532>537-090600-
EASTCENTRAL PLAINS

CITY           SKY/WX    TMP DP  RH WIND       PRES   REMARKS
TUCUMCARI      CLOUDY    30  15  53 SW5       30.39S WCI  25
CANNON AFB     CLOUDY    32  14  48 N3        30.40R
CLOVIS AIRPORT CLOUDY    30  16  55 NW6       30.41S WCI  24

$$
NMZ028-029-538-090600-
SOUTHEAST PLAINS

CITY           SKY/WX    TMP DP  RH WIND       PRES   REMARKS
ROSWELL        CLOUDY    33  15  47 W6        30.41R WCI  28
ARTESIA        CLOUDY    36  16  44 CALM      30.42R
CARLSBAD       CLOUDY    28  15  58 S9        30.42R WCI  19
HOBBS          CLOUDY    32  14  47 SW9       30.42S WCI  24


$$




USA.gov is the U.S. government's official web portal to all federal, state and local government web resources and services.